Hourly Data Report for June 01, 2018

OTTAWA INTL A
ONTARIO
Current Station Operator: NAVCAN

45°19'00.000" N
75°40'00.000" W
114.90 m
6106001
71628
YOW

Download Data

Hourly Data (June 2018)
Hourly Data Report for June 1, 2018
TIME
LST
Temp Definition
°C
Dew Point Definition
°C
Rel Hum Definition
%
Precip. Amount Definition
mm

Wind Dir Definition
10's deg

Wind Spd Definition
km/h
Visibility Definition
km
Stn Press Definition
kPa
Hmdx Definition


Wind Chill Definition


Weather Definition


00:00 21.1 19.7 92   19 5 24.1 99.39 28   LegendNANA
01:00 21.1 19.9 92   24 7 24.1 99.42 29   Cloudy
02:00 20.9 19.7 93   17 9 24.1 99.36 28   LegendNANA
03:00 20.2 19.2 94   18 7 24.1 99.35 27   LegendNANA
04:00 20.1 19.1 93   23 4 24.1 99.36 27   Mainly Clear
05:00 20.4 19.1 92   20 8 24.1 99.36 27   LegendNANA
06:00 21.1 19.4 90   21 13 24.1 99.36 28   LegendNANA
07:00 22.5 20.0 86   22 14 24.1 99.38 30   Mostly Cloudy
08:00 23.5 20.6 83   22 10 24.1 99.38 32   LegendNANA
09:00 24.5 20.6 79   27 9 24.1 99.42 33   LegendNANA
10:00 26.1 20.8 72   27 9 24.1 99.45 34   Mostly Cloudy
11:00 27.0 20.8 68   31 6 24.1 99.42 35   LegendNANA
12:00 26.9 20.8 69   33 6 24.1 99.41 35   LegendNANA
13:00 26.9 21.0 70   33 8 24.1 99.34 35   Thunderstorms
14:00 24.6 22.1 85   24 11 24.1 99.37 34   LegendNANA
15:00 24.7 21.1 80   23 12 24.1 99.36 33   LegendNANA
16:00 25.9 22.4 81   27 7 24.1 99.33 36   Mostly Cloudy
17:00 26.1 21.2 74   29 16 24.1 99.34 35   LegendNANA
18:00 25.0 20.5 76   33 22 24.1 99.38 33   LegendNANA
19:00 23.1 19.2 78   35 17 24.1 99.46 30   Mostly Cloudy
20:00 22.4 18.8 80   33 20 24.1 99.53 29   LegendNANA
21:00 21.3 16.3 73   33 26 24.1 99.64 26   LegendNANA
22:00 19.4 13.0 66   34 32 24.1 99.70     Mostly Cloudy
23:00 17.5 11.8 69   34 26 24.1 99.74     LegendNANA

Notes on Data Quality.

Legend

  • E = Estimated
  • M = Missing
  • NA = Not Available*
  • [empty] = Indicates an unobserved value
Date modified: